Location: Cedar Falls
(42.5280°N, 92.4450°W)
Time: 01:18:03
(UTC-05:00)

NOSS 3-1 (C) - Visible Passes

Search period start: 24 March 2017 00:00
Search period end: 03 April 2017 00:00
Orbit: 833 x 1376 km, 63.4° (Epoch: 28 February)

Date Brightness Start Highest point End Pass type
(mag) Time Alt. Az. Time Alt. Az. Time Alt. Az.
24 Mar 5.7 05:35:52 10° SSE 05:39:55 20° ESE 05:44:15 10° ENE visible
25 Mar 6.2 04:54:09 10° ESE 04:55:13 10° ESE 04:56:18 10° E visible
26 Mar 4.4 05:54:09 10° S 05:59:35 46° ESE 06:05:36 10° NE visible
27 Mar 5.2 05:09:56 10° SSE 05:14:39 27° ESE 05:19:46 10° NE visible
28 Mar 5.7 04:26:40 10° SE 04:29:53 15° ESE 04:33:13 10° ENE visible
28 Mar 3.4 06:13:50 10° SW 06:19:37 84° NW 06:26:10 10° NE visible
29 Mar 3.8 05:28:53 10° SSW 05:34:25 61° ESE 05:40:45 10° NE visible
30 Mar 4.6 04:45:32 17° S 04:49:25 36° ESE 04:55:06 10° NE visible
31 Mar 5.2 04:02:05 16° SE 04:04:33 21° ESE 04:09:02 10° ENE visible
31 Mar 3.5 05:49:30 14° SW 05:54:38 66° NW 06:01:10 10° NNE visible
01 Apr 5.8 03:18:33 10° ESE 03:19:50 11° ESE 03:21:33 10° E visible
01 Apr 3.4 05:05:58 27° SSW 05:09:20 79° ESE 05:15:49 10° NE visible
02 Apr 4.0 04:22:22 36° SSE 04:24:14 48° ESE 04:30:19 10° NE visible
02 Apr 4.3 06:09:50 10° WSW 06:15:15 35° NW 06:21:20 10° NNE visible
